Regional Weather Roundup
Issued by NWS

Home | Current Version | Previous Version | Text Only | Print | Product List | Glossary On
Versions: 1 2 3 4 5 6 7 8 9 10 11 12 13 14 15 16 17 18 19 20 21 22 23 24 25 26 27 28 29 30 31 32 33 34 35 36 37 38 39 40 41 42 43 44 45 46 47 48 49 50
000
ASCA42 TJSJ 250011
RWRPR
PUERTO RICO/U.S. VIRGIN ISLANDS HOURLY WEATHER ROUNDUP
NATIONAL WEATHER SERVICE SAN JUAN PR
800 PM AST FRI OCT 24 2014

PRZ001-004-250100-
PUERTO RICO

CITY           SKY/WX    TMP DP  RH WIND       PRES   REMARKS
SAN JUAN LMM   CLEAR     84  75  74 SE3       29.90R HX  92
AGUADILLA      CLEAR     79  75  89 CALM      29.90R
CEIBA          PTCLDY    82  75  78 SE5       29.92R
$$

PRZ006-007-250100-
U.S. VIRGIN ISLANDS

CITY           SKY/WX    TMP DP  RH WIND       PRES   REMARKS
CHARLOTTE AMA  PTCLDY    82  75  78 E9        29.91
$$

HOURLY WEATHER ROUNDUP FOR THE NEWS MEDIA

CITY           SKY/WX    TMP DP  RH WIND       PRES   REMARKS
MIAMI          LGT RAIN  77  69  76 N7        29.83R
ORLANDO        CLOUDY    73  59  61 NE8       29.94R
NEW YORK       MOCLDY    54  45  71 E3        29.81R
NEWARK         MOCLDY    60  46  59 CALM      29.81R
CHICAGO        MOCLDY    61  46  57 S6        29.94S
HARTFORD       CLOUDY    51  45  79 W5        29.72S
BOSTON         CLOUDY    50  43  77 NW8       29.73R
DALLAS         PTCLDY    79  60  52 S7        30.06S
PHILADELPHIA   MOCLDY    62  41  46 W9        29.86R



USA.gov is the U.S. government's official web portal to all federal, state and local government web resources and services.